Theta_e
342 341 344 342 343 343 341 341 344 343 342 336 342 342 338 336 338 336 337 334 334 337 335 336 339 337 340 342 344 344 343 341 341 343 342 342 340 339 339 338 337 336 335 334 333 332 332 331 330 330 329 327 327 327 326 325 323 323 324 324 322 320 321 321 321 321 320 320 320 320 320 320 320 321 321 320 319 320 319 320 320 320 319 320 319
344 344 343 343 343 345 344 343 342 344 344 340 341 338 337 339 337 336 333 333 334 338 336 335 336 339 340 342 343 345 346 345 341 345 338 338 339 337 337 336 335 334 333 332 331 331 330 330 329 329 328 327 326 325 323 323 322 321 322 323 322 321 320 320 321 320 320 320 320 320 320 319 319 319 319 320 319 319 319 319 320 319 319 319 319
345 346 345 344 344 345 344 344 342 344 344 341 345 343 340 337 337 335 334 333 334 337 335 337 338 338 340 345 342 344 347 345 345 341 337 336 336 336 334 334 333 333 332 331 330 329 329 327 327 327 326 326 325 324 324 322 321 321 321 321 321 321 321 321 320 320 319 320 320 320 320 320 319 319 318 318 319 319 319 319 318 319 319 319 318
346 347 345 345 344 344 343 345 343 344 341 340 343 343 341 338 337 338 337 338 337 339 338 339 342 339 343 341 341 344 345 343 343 337 336 336 335 334 333 332 332 330 330 330 330 330 330 328 326 327 327 326 326 325 325 324 322 321 320 320 320 320 320 320 320 319 319 319 319 319 319 319 319 319 318 318 318 317 318 319 318 318 318 319 318
347 347 345 343 343 342 341 343 342 342 341 344 343 342 342 340 341 342 340 340 340 340 342 346 342 341 342 343 342 342 344 337 338 337 338 335 334 334 333 332 331 329 328 328 328 328 328 327 326 326 327 326 325 324 324 323 323 322 320 320 319 319 319 319 319 319 319 319 319 318 318 318 318 318 318 318 318 318 317 318 318 318 318 318 318
346 345 344 341 342 342 341 340 340 341 341 346 343 341 339 340 340 340 339 338 338 342 344 346 343 343 340 342 345 344 337 336 337 337 335 334 334 334 333 331 329 329 327 327 327 327 327 326 326 326 325 325 324 323 323 323 322 321 320 319 319 318 318 318 318 318 318 318 318 318 318 318 317 317 318 318 318 318 318 317 317 318 318 318 318
345 345 343 341 342 340 340 339 342 342 339 343 341 341 340 339 339 339 342 342 344 342 342 344 344 340 338 341 342 338 338 337 336 336 334 334 334 331 333 330 330 330 328 328 327 327 326 326 325 323 322 322 322 322 321 321 321 320 319 318 317 316 316 317 318 319 319 318 318 319 318 318 318 317 317 317 317 318 319 318 317 317 318 317 318
346 347 347 346 343 343 344 345 347 345 345 345 345 346 344 344 345 344 345 342 343 338 342 343 341 339 339 342 338 338 336 336 336 333 332 333 330 331 331 329 329 328 329 327 328 326 325 324 323 323 323 322 322 322 321 320 320 319 317 317 316 316 316 316 316 317 319 318 317 317 318 318 317 316 316 316 316 317 317 317 317 317 318 318 317
349 348 349 348 347 348 348 351 353 351 349 349 348 348 347 344 346 346 345 344 342 339 340 341 338 339 338 338 337 338 337 337 336 335 333 329 329 327 328 326 326 326 328 327 328 326 324 324 323 323 322 321 320 319 319 320 319 317 317 315 316 316 316 316 316 317 318 318 317 317 317 317 317 316 315 315 316 316 316 316 316 317 317 317 317
348 348 349 349 349 350 351 351 351 350 350 348 349 349 347 348 345 346 345 344 342 337 338 337 338 338 337 336 337 336 336 337 338 336 332 329 328 326 326 325 321 319 323 328 326 324 323 323 322 321 320 320 318 317 317 318 319 318 317 315 315 316 316 316 317 317 318 317 317 317 317 316 316 315 314 314 315 315 315 315 316 317 318 318 317
347 346 349 348 348 350 351 352 351 349 349 347 348 348 347 349 344 346 346 344 341 342 342 338 337 336 336 336 337 337 337 336 336 334 329 328 326 325 324 324 320 319 323 323 326 325 323 322 319 319 319 318 318 317 317 317 318 316 316 316 316 317 318 316 317 317 316 316 317 316 316 315 316 315 315 314 314 315 315 315 316 317 317 318 317
345 347 349 348 347 349 350 351 349 349 348 347 346 346 347 348 347 345 344 344 341 342 345 340 338 335 334 335 335 334 334 334 335 333 331 328 326 326 325 322 322 321 319 320 323 325 324 321 319 318 317 317 318 316 314 315 315 314 315 316 316 317 318 317 317 316 316 316 316 316 315 315 315 315 314 314 314 315 315 316 317 317 316 317 317
345 345 348 348 347 347 348 349 348 348 348 346 348 348 349 348 345 343 341 340 338 340 342 341 333 330 332 333 332 334 334 335 333 333 331 328 326 324 325 322 321 318 319 320 319 322 323 322 321 321 316 315 317 317 315 315 314 313 315 315 315 315 316 316 315 316 315 315 315 314 314 314 314 313 314 314 315 315 316 317 317 316 316 316 316
346 347 349 348 348 345 346 349 348 347 348 349 348 347 347 344 343 343 342 340 339 339 340 338 331 327 325 326 328 330 332 333 332 330 331 328 327 327 326 322 320 320 320 317 318 316 316 319 321 319 317 314 312 311 313 313 315 314 313 313 314 314 314 314 315 316 315 314 314 313 313 313 313 313 314 315 315 316 317 316 316 316 316 315 315
346 344 348 348 348 346 345 348 349 348 347 346 347 346 346 344 342 339 337 338 341 342 339 338 330 331 331 327 323 322 326 328 332 331 329 328 327 325 324 321 319 318 319 317 316 315 315 316 316 316 318 318 316 314 315 316 315 315 313 312 314 314 313 313 314 314 313 313 313 313 313 313 313 313 314 314 315 316 316 315 315 315 315 315 315
345 345 345 347 348 347 346 347 349 348 345 344 346 346 347 344 343 342 339 335 333 337 341 339 336 332 323 325 324 323 319 323 326 328 330 327 326 325 324 322 319 318 318 315 314 315 316 315 315 316 318 317 317 317 316 316 315 316 316 315 314 312 311 312 312 312 312 312 312 312 313 313 313 313 314 314 315 315 315 315 315 314 314 315 315
345 344 343 346 347 347 347 347 349 347 346 346 347 346 346 343 343 341 339 336 334 336 340 340 338 337 332 325 322 320 320 323 325 326 328 326 325 325 324 322 320 317 316 315 315 315 315 314 317 317 318 317 317 316 317 316 316 317 317 317 313 311 310 310 310 310 311 312 312 313 313 312 312 313 314 314 315 315 314 314 314 313 314 314 315
344 344 343 344 346 347 347 346 349 347 346 346 347 347 346 344 343 341 339 339 338 334 336 340 340 337 336 334 333 327 326 323 323 318 326 328 326 323 323 323 322 318 317 316 314 314 315 315 317 317 317 317 316 316 316 316 317 317 320 316 314 313 311 309 309 309 310 311 312 312 313 312 312 313 314 314 314 314 313 313 313 313 314 314 314
344 344 344 345 345 347 347 347 346 346 346 346 345 347 345 344 343 341 339 338 338 334 335 335 338 338 336 336 335 335 332 325 320 323 317 322 324 323 322 322 323 319 317 316 315 316 316 315 315 315 316 316 317 316 317 316 317 316 315 313 311 311 311 309 309 309 310 311 312 312 312 312 312 313 314 314 313 313 312 312 312 313 313 314 313
345 344 346 345 345 346 347 346 345 347 345 344 346 348 345 345 344 343 341 340 339 336 336 336 334 333 336 335 335 335 334 332 331 326 323 318 318 322 323 324 323 321 319 317 316 316 317 316 314 314 315 315 316 316 316 317 317 317 314 312 311 310 309 310 309 309 310 311 311 312 312 312 312 313 314 313 312 312 311 311 312 313 313 313 312
345 345 345 345 345 345 346 346 346 346 345 345 346 346 346 344 343 343 341 340 340 339 338 335 336 334 334 334 333 331 330 330 330 330 324 322 320 318 318 322 323 321 322 320 319 317 316 316 314 315 316 318 317 316 316 317 317 318 312 312 310 309 308 309 309 309 309 310 311 312 311 312 312 313 313 312 311 311 311 311 312 312 312 312 311
345 344 344 345 345 346 345 344 346 346 344 345 346 346 346 345 344 343 342 340 338 339 338 338 337 337 335 333 328 328 327 327 327 325 326 326 320 318 319 317 315 319 322 319 319 317 317 317 315 314 315 316 316 315 315 317 318 316 312 310 309 308 307 308 309 309 309 309 310 310 310 311 312 313 312 312 311 311 310 311 311 312 311 311 310
345 345 344 345 347 347 345 344 346 346 345 344 345 344 344 346 344 343 341 339 341 341 339 338 337 335 334 332 331 328 326 325 325 325 324 322 321 321 322 320 318 319 320 320 320 318 316 317 314 314 316 316 316 316 316 317 313 311 310 311 308 308 308 308 308 309 309 309 308 309 309 310 311 311 311 311 310 310 310 311 311 311 310 310 310
345 343 345 345 346 345 347 345 345 346 345 345 345 344 345 344 343 342 342 341 341 340 338 337 336 338 335 333 332 332 330 328 327 327 326 325 325 324 322 322 321 321 320 321 319 318 316 315 315 315 314 315 315 316 317 317 314 312 312 310 309 308 308 308 308 309 308 308 308 308 310 310 310 311 310 310 310 309 310 310 311 310 310 310 310
342 342 344 345 344 345 345 345 345 345 346 345 345 344 343 343 341 341 342 340 339 340 340 337 337 335 333 334 334 333 331 331 331 329 330 329 327 322 323 323 319 319 318 318 316 317 316 315 315 314 314 315 314 316 316 315 311 312 315 311 311 308 310 307 308 308 310 310 309 308 309 309 309 310 309 309 309 309 310 310 310 309 309 310 310
343 342 344 344 344 345 346 347 347 346 346 346 345 343 343 341 342 341 340 340 341 339 339 337 337 336 336 334 333 331 332 334 332 331 329 328 325 324 323 322 322 319 318 316 317 313 314 315 315 314 314 314 314 315 316 314 309 310 310 313 311 310 308 308 308 308 308 308 308 308 308 308 308 309 309 309 309 310 310 310 309 309 309 309 309
342 344 345 344 345 345 346 346 346 346 345 346 344 343 342 340 340 340 338 339 339 337 337 337 335 336 336 334 334 333 333 333 332 332 330 329 328 327 323 319 318 318 317 317 315 314 312 313 314 313 314 316 315 315 315 315 312 310 312 307 312 310 309 308 307 307 308 308 307 307 307 307 307 307 308 308 309 309 309 309 309 309 309 309 310
345 344 345 344 344 344 345 345 347 346 345 345 345 342 341 340 339 339 338 338 338 336 336 336 336 336 335 336 334 332 334 333 333 332 331 331 329 328 326 322 317 314 316 314 313 311 313 311 312 313 313 313 314 316 314 312 310 311 312 311 314 309 309 307 308 308 307 307 306 306 306 307 307 307 307 308 309 309 309 309 309 309 309 309 310
345 346 346 345 345 344 344 345 346 346 345 344 343 342 341 341 338 337 336 337 336 334 334 334 335 335 335 334 334 333 333 334 332 331 331 331 330 328 325 322 321 316 312 312 313 311 311 311 308 310 312 313 314 315 312 312 311 310 311 312 314 314 309 308 308 307 307 306 306 306 306 306 307 307 308 308 309 309 309 309 309 309 309 309 309
345 345 346 344 344 343 344 345 346 345 344 343 342 342 341 340 339 338 336 337 335 335 334 333 334 334 334 333 333 332 332 332 331 333 332 330 328 325 324 323 323 318 315 311 312 314 312 312 311 309 310 311 313 314 313 312 309 309 308 310 312 313 307 308 306 305 307 307 306 305 304 305 306 307 308 308 308 309 309 309 309 309 309 308 308
345 345 344 343 343 343 344 344 345 344 343 342 342 342 340 338 337 336 336 336 334 332 333 333 333 332 332 331 331 330 331 331 331 331 330 328 327 326 324 323 323 321 317 314 309 314 317 311 311 313 310 311 311 312 311 311 310 309 308 311 312 312 309 309 306 306 306 305 305 306 307 306 306 306 307 307 308 309 309 309 309 308 307 307 306
344 344 343 342 343 342 342 343 343 343 341 341 341 339 339 338 337 334 335 334 331 331 332 332 330 330 330 328 328 328 329 328 328 328 327 326 326 323 321 320 319 320 319 316 313 313 317 315 314 313 310 312 310 310 310 309 307 312 309 309 312 309 310 311 306 306 306 305 305 304 305 305 304 306 306 307 308 309 308 308 307 305 305 305 304
344 344 343 342 342 341 341 341 341 341 341 341 341 339 339 336 336 334 334 332 331 330 331 330 330 330 329 328 327 327 328 326 326 325 322 322 322 320 319 317 316 318 319 317 312 312 316 318 315 312 311 311 309 309 308 309 309 310 308 310 312 311 310 311 311 306 305 306 304 303 303 302 302 305 307 308 308 307 307 303 302 304 304 305 303
344 342 343 342 342 341 341 338 339 341 341 341 340 339 336 335 335 335 334 332 331 330 330 329 328 328 328 327 326 326 326 323 323 321 320 319 318 316 316 316 315 316 319 314 309 310 312 314 312 310 311 311 307 309 307 309 309 310 307 307 310 310 309 310 312 307 306 306 305 303 303 302 301 302 302 302 301 301 302 301 301 301 302 303 300
344 343 343 343 342 342 340 339 339 340 340 339 339 337 336 334 333 333 333 332 331 330 329 328 326 326 325 325 324 324 324 322 321 321 319 317 316 314 313 313 314 313 314 313 311 310 313 311 313 309 309 309 308 307 307 308 309 308 307 307 308 310 310 310 310 310 302 304 302 302 302 302 302 302 301 301 301 301 301 301 301 301 300 300 300
343 344 344 343 341 340 339 338 338 338 338 339 338 336 335 334 333 332 332 331 330 329 327 326 325 324 323 323 323 323 322 320 319 317 316 315 313 311 312 312 312 313 315 315 315 316 312 309 310 307 309 308 305 308 308 308 308 309 308 308 308 308 310 310 310 311 304 303 303 303 303 303 303 303 302 302 302 302 302 301 301 301 301 300 300
344 344 344 343 341 341 340 338 337 337 338 338 336 335 335 335 334 333 331 329 329 329 328 326 326 323 323 322 322 322 320 319 319 314 315 314 312 312 312 312 312 315 316 316 315 314 312 310 309 308 310 308 308 307 306 305 307 308 309 308 307 308 310 312 312 310 308 303 304 304 304 303 303 303 302 302 302 302 302 301 301 301 301 301 301
344 344 343 341 341 340 340 339 337 337 338 338 336 335 334 335 334 332 331 329 329 329 327 326 324 323 322 321 321 321 319 318 316 315 315 314 312 312 311 310 311 317 316 313 312 310 310 310 310 307 309 307 307 308 307 306 305 305 306 308 310 309 309 309 311 311 312 312 313 313 309 305 304 302 303 303 302 302 301 301 301 302 301 301 301
344 344 343 342 342 340 340 340 338 337 337 337 337 336 335 335 333 331 329 329 329 328 327 325 323 322 321 321 321 320 318 317 316 315 314 314 313 312 311 311 314 313 310 308 308 309 309 309 308 308 307 307 308 306 307 307 307 304 304 305 306 309 311 310 309 310 311 312 309 305 306 305 305 308 304 302 302 302 302 302 302 302 302 301 301
344 344 342 341 342 341 341 340 339 338 338 337 337 337 335 333 331 329 328 328 327 326 326 324 322 321 320 320 320 319 318 317 317 315 316 313 313 312 311 313 313 309 306 308 308 307 306 308 307 306 306 306 306 308 309 308 306 305 307 306 304 304 306 310 310 309 311 311 310 310 307 307 308 307 302 302 303 303 303 303 304 304 303 302 301
344 343 343 342 342 341 341 340 338 338 338 338 337 335 334 331 329 327 327 326 326 325 323 322 321 320 319 320 320 319 318 319 316 315 315 314 313 311 313 313 311 307 307 308 307 306 306 307 306 307 306 306 306 305 305 305 304 306 311 310 306 306 308 308 309 311 310 310 311 310 310 310 308 309 309 310 311 311 312 305 306 305 304 302 301
343 343 342 342 341 341 340 339 339 338 337 337 328 319 319 329 329 327 326 326 327 326 322 321 320 318 318 318 319 319 316 312 308 304 303 305 309 317 313 312 309 307 307 307 306 306 306 305 304 305 305 305 305 307 307 308 309 309 306 306 305 308 308 307 308 310 311 311 309 307 308 310 309 308 308 308 309 312 309 310 309 307 303 300 300
342 342 342 341 341 341 340 338 338 338 337 335 310 307 308 312 325 328 326 326 327 326 321 320 318 317 318 317 319 316 314 311 309 301 301 301 300 299 300 305 312 317 309 308 307 307 305 305 305 306 305 305 306 308 308 308 309 307 306 308 307 306 305 304 302 307 312 310 307 305 307 311 311 307 307 307 308 309 309 309 303 302 300 300 300
342 343 342 341 340 341 340 339 338 337 338 313 304 305 305 306 314 327 327 326 326 323 321 319 318 317 317 317 317 315 314 313 312 310 306 300 297 297 297 297 295 294 297 312 312 308 307 305 305 306 306 306 307 309 307 307 307 308 308 307 307 306 306 305 304 303 308 310 307 306 307 312 311 308 307 307 307 309 308 305 302 300 300 301 300
342 341 341 341 340 340 340 338 337 336 335 304 304 303 303 304 306 318 326 326 324 323 321 318 317 317 316 316 315 314 313 313 311 310 308 307 301 298 299 299 299 297 293 292 294 312 311 308 307 307 307 307 307 308 309 308 309 308 307 305 306 307 308 305 305 304 306 311 308 307 305 308 310 307 305 307 307 309 308 304 302 301 301 300 299
341 340 341 340 340 339 339 338 337 335 332 305 302 302 302 302 303 311 326 325 324 323 320 318 318 317 316 315 315 313 313 311 310 308 308 307 306 306 306 307 309 307 296 296 297 294 303 313 311 309 310 310 308 309 311 310 308 305 305 306 308 307 307 305 306 306 309 311 308 306 303 305 308 306 304 305 307 308 308 305 300 301 300 299 299
339 339 338 339 339 338 339 338 336 334 330 302 301 301 301 301 301 308 328 325 324 323 321 319 318 317 316 316 316 313 312 310 310 309 309 308 307 307 306 305 305 307 308 309 310 310 310 312 314 312 312 311 311 311 312 311 309 307 308 308 308 306 305 307 308 309 310 312 310 306 300 304 308 304 304 304 306 306 307 303 302 301 300 300 300
340 339 339 338 338 338 338 337 335 333 323 299 300 300 300 300 300 321 326 327 325 322 320 318 317 316 316 316 315 312 312 310 307 300 305 309 308 307 305 305 304 305 306 310 302 304 313 316 316 313 310 305 301 311 309 313 311 311 310 309 308 308 306 305 305 307 305 309 309 305 304 304 307 303 302 304 305 304 305 306 302 302 301 300 300
338 338 337 337 338 337 336 335 335 333 320 302 299 299 299 299 305 321 324 324 322 320 319 318 316 316 316 316 315 313 313 311 304 297 298 304 308 306 304 304 304 306 306 313 297 295 294 293 292 292 292 292 292 292 293 293 305 305 305 302 302 304 304 302 303 303 304 306 308 310 306 302 305 303 302 303 304 303 304 305 307 303 302 300 299
336 336 337 336 337 336 336 335 335 333 322 306 298 298 299 299 309 320 322 324 320 319 317 317 316 316 316 313 315 314 314 314 297 296 296 306 308 306 304 304 304 305 307 310 309 309 293 293 294 293 293 291 291 291 292 292 290 298 303 300 304 304 302 302 301 303 303 305 309 310 305 302 304 304 302 303 303 304 304 305 305 305 303 302 301
337 337 334 335 335 335 335 336 325 330 323 307 297 298 298 299 310 320 320 319 318 317 316 315 316 316 315 314 312 312 315 308 295 296 296 304 309 306 307 305 304 305 307 311 309 307 308 307 307 310 306 300 306 307 306 292 293 299 305 304 304 302 301 301 302 302 301 304 309 310 303 303 302 303 302 300 299 302 305 304 304 306 306 305 305
Wind_Speed
9 9 8 8 7 7 7 7 7 7 8 8 7 7 8 7 6 7 6 7 6 5 5 6 5 5 2 3 5 2 3 9 7 2 4 6 7 9 11 11 10 10 10 11 11 12 12 12 11 11 11 11 11 11 11 11 10 9 8 8 8 8 9 9 9 9 9 10 10 10 10 11 11 11 12 11 12 11 12 12 12 13 13 13 13
8 8 8 8 7 7 6 6 7 7 6 8 7 7 7 6 7 7 8 8 6 6 5 5 6 2 3 4 6 3 3 2 8 5 7 8 8 8 10 9 10 10 10 11 12 11 11 11 11 11 11 11 11 11 11 10 9 8 7 6 7 6 7 8 8 8 8 8 8 9 9 10 11 11 11 11 11 11 11 12 11 12 12 12 13
8 8 7 7 7 7 7 6 7 6 6 7 6 5 6 7 7 6 7 7 6 5 6 5 4 2 3 9 7 1 1 2 3 7 7 7 8 8 9 9 9 9 9 10 11 11 11 11 11 11 10 10 10 10 10 9 8 7 7 6 5 5 5 5 6 6 7 7 7 8 8 9 9 10 11 11 10 10 10 11 11 11 11 11 11
8 7 7 7 7 7 7 6 7 6 7 6 5 6 6 6 7 6 6 6 5 3 5 2 8 6 4 7 3 1 1 4 9 7 7 7 7 8 9 10 9 8 8 9 9 10 10 10 10 10 10 9 9 9 8 8 6 6 5 5 4 4 4 4 4 5 5 6 7 7 8 8 9 9 9 10 11 11 11 10 10 12 12 11 11
7 8 7 7 7 7 7 7 6 6 6 6 6 6 5 5 5 4 5 5 4 4 4 6 5 3 4 3 5 3 5 3 2 4 4 6 7 8 9 11 11 9 8 8 9 9 9 9 9 9 9 8 8 7 7 6 6 5 4 4 3 3 3 3 3 3 3 5 5 6 8 8 8 9 9 9 9 10 11 11 11 12 12 12 11
7 8 7 7 7 7 7 7 6 6 5 5 5 5 5 5 5 6 6 5 5 3 4 2 4 3 3 3 4 5 6 5 4 3 4 3 4 11 11 9 11 9 7 8 8 8 9 8 8 8 7 7 6 5 6 6 5 5 4 3 2 1 2 3 4 5 6 6 6 6 7 8 10 10 10 10 10 10 11 11 11 11 12 12 11
8 7 7 7 7 7 7 7 6 6 6 6 6 6 5 6 6 6 6 5 2 10 1 2 3 5 5 5 7 9 5 5 4 4 4 3 3 6 5 5 4 6 7 7 8 9 8 8 8 7 6 6 5 5 4 4 4 4 3 3 2 3 4 5 5 6 5 7 8 8 8 9 11 12 12 12 12 12 12 12 13 12 12 11 11
9 8 7 7 7 7 7 6 7 6 6 6 6 6 6 5 6 6 3 4 5 6 3 3 3 5 7 7 5 4 5 4 4 3 3 3 5 4 2 2 3 6 6 6 6 7 8 8 8 7 6 4 4 5 5 4 3 3 2 2 1 1 2 3 5 7 7 6 8 9 9 9 10 12 13 13 13 13 13 13 13 14 14 11 11
9 8 7 7 7 7 7 7 6 6 6 6 6 6 6 6 5 5 3 3 8 6 3 2 1 5 5 5 5 4 4 4 2 3 4 5 3 4 3 4 4 6 4 6 6 6 8 7 7 6 5 3 2 2 3 3 4 3 2 2 2 3 3 3 4 5 6 7 8 10 10 10 10 12 13 13 13 14 14 14 14 14 14 12 11
10 9 7 8 7 7 6 7 7 6 6 6 6 6 6 5 5 6 5 4 5 8 7 4 5 2 4 5 5 3 3 3 2 3 1 4 2 3 4 4 3 4 4 5 7 7 7 7 7 6 6 5 2 2 2 3 2 2 3 2 2 3 4 5 5 6 7 7 9 10 10 10 11 12 14 14 14 14 14 14 14 14 14 13 11
10 10 8 8 8 7 6 8 7 6 6 6 6 7 5 5 7 6 5 6 9 7 6 6 4 3 5 5 4 3 3 3 3 3 2 2 3 3 4 4 4 4 4 4 6 7 7 7 7 7 7 7 6 2 1 1 2 2 1 2 2 4 5 5 6 6 7 8 9 10 11 11 12 13 15 15 15 14 14 14 14 14 14 13 13
11 10 9 8 8 7 7 7 7 6 6 6 7 6 7 7 5 6 6 4 8 5 4 4 6 6 5 5 2 3 3 2 2 3 3 4 3 2 3 4 3 4 5 5 4 6 7 7 7 7 7 9 8 5 3 2 1 1 1 2 3 5 6 6 6 6 8 9 9 11 13 13 13 14 15 15 14 14 14 14 14 14 14 14 14
11 11 9 8 8 7 7 7 7 7 7 7 7 6 7 5 4 5 7 6 8 5 5 4 8 5 3 4 4 4 4 3 2 3 4 4 4 4 3 3 4 4 5 3 5 5 5 6 6 6 7 7 8 9 10 8 6 2 1 1 3 5 5 6 7 7 8 10 11 13 14 14 14 14 15 14 14 14 14 13 13 14 14 15 15
10 10 9 8 8 7 8 7 7 7 7 6 7 7 7 6 4 6 7 6 5 9 7 7 7 7 8 7 5 4 4 3 3 4 4 4 5 4 4 4 5 5 4 4 4 5 6 5 5 4 5 8 8 7 8 8 7 5 3 0 2 4 5 5 7 8 9 11 12 13 14 13 13 14 14 14 14 14 13 13 13 14 14 14 15
11 10 9 9 8 8 8 7 8 7 6 7 7 8 7 8 9 7 6 6 5 6 9 10 7 8 8 7 6 5 5 5 7 8 7 6 4 5 5 6 7 6 5 5 5 5 6 6 5 4 2 2 4 7 7 9 8 10 6 3 1 2 3 5 6 8 10 12 13 14 13 13 13 13 13 13 13 13 13 13 14 14 14 14 14
12 11 10 9 9 9 8 8 7 7 7 7 7 7 7 7 7 7 7 6 7 7 8 9 5 8 7 6 5 5 5 8 8 7 6 8 7 6 6 6 6 7 5 6 6 5 5 6 6 5 3 4 3 1 3 6 12 12 8 5 3 2 2 4 6 7 10 12 13 13 12 12 12 12 13 13 12 12 12 13 13 13 14 14 14
12 12 10 10 10 9 8 8 8 8 7 7 6 7 8 8 8 7 8 6 7 6 7 8 7 7 4 5 4 5 5 4 8 6 7 8 9 7 6 7 6 7 6 6 6 6 5 6 5 5 5 4 3 3 4 5 8 7 7 8 5 3 3 4 5 7 10 11 12 12 12 12 12 12 12 12 12 12 12 13 13 14 14 14 14
12 12 12 10 10 10 9 9 9 8 8 7 6 7 8 8 8 8 9 8 6 6 7 7 7 7 6 5 3 2 1 6 6 5 7 7 7 9 8 8 7 7 7 7 7 6 6 5 7 5 5 5 5 5 4 3 2 3 6 6 6 4 2 2 5 7 9 11 12 12 12 12 12 12 12 12 12 12 13 13 14 14 14 14 14
12 12 12 11 10 10 10 10 9 8 8 7 7 7 7 8 7 8 8 7 6 6 6 7 6 7 6 6 5 5 3 3 5 3 6 6 6 7 7 8 7 8 8 8 8 6 5 6 7 7 7 6 5 4 4 3 8 8 10 9 6 3 3 2 3 6 8 10 11 12 12 12 12 12 12 12 12 12 13 13 13 13 14 14 14
12 12 12 11 10 10 10 10 9 9 8 8 7 7 7 8 8 8 7 7 7 4 7 6 7 6 7 7 6 6 5 5 7 6 4 4 7 6 7 7 8 7 7 8 8 7 7 6 6 7 6 7 6 5 6 5 5 5 5 7 5 2 2 2 2 5 8 10 11 12 12 12 12 12 12 12 11 12 12 13 13 13 13 14 14
12 12 12 12 11 10 11 11 10 9 8 8 8 8 9 8 8 7 7 6 5 5 5 6 7 6 7 6 6 6 7 7 7 7 6 6 7 8 7 7 6 7 7 7 7 6 8 7 7 7 6 6 6 6 5 5 5 6 8 8 5 3 2 3 3 4 6 9 10 11 12 12 12 12 12 12 11 12 12 12 13 13 13 14 15
12 14 14 13 13 11 11 12 11 9 8 9 9 9 9 9 9 9 8 7 6 6 6 5 5 5 6 6 7 7 6 7 7 7 7 7 8 5 9 10 10 9 9 9 8 7 7 7 7 8 7 6 6 6 5 5 5 6 8 9 5 3 2 2 3 5 6 7 9 10 11 12 12 12 12 12 12 12 12 12 13 13 14 15 15
11 11 14 12 13 12 10 11 10 9 9 9 8 9 9 9 8 9 9 9 6 6 7 7 6 7 8 7 7 7 7 7 7 7 7 6 7 7 7 10 11 10 10 9 8 8 7 7 8 8 6 6 6 6 6 4 8 9 11 8 7 4 3 1 3 5 6 7 7 9 10 11 11 11 12 12 12 12 12 12 13 13 14 15 16
10 10 11 13 12 12 11 11 11 10 10 8 8 9 8 8 8 8 7 8 8 6 7 8 9 4 7 7 7 7 7 7 7 7 7 7 6 6 5 6 9 8 10 10 9 7 9 8 8 8 8 6 6 5 4 5 7 13 7 9 8 6 5 3 3 5 5 5 7 8 9 10 11 11 12 12 12 12 12 13 13 13 14 15 15
13 13 13 14 13 12 11 10 10 10 10 9 9 10 9 8 9 9 8 9 8 9 5 8 8 9 10 9 7 8 8 7 7 7 6 6 7 7 7 8 8 9 14 12 6 7 8 9 8 8 8 7 5 5 5 4 7 7 7 10 10 8 5 6 4 5 5 4 5 7 8 9 10 10 11 11 11 12 12 13 13 13 13 13 14
13 14 13 14 13 13 12 11 10 10 10 10 10 10 9 9 8 8 8 7 7 8 9 10 10 10 7 7 8 9 7 6 7 7 7 7 7 7 7 7 6 4 4 2 5 7 8 8 8 8 7 7 6 5 5 5 8 9 5 2 10 10 8 6 4 5 5 6 6 6 7 8 9 10 10 11 11 12 13 13 13 13 13 13 14
14 13 14 14 14 13 13 12 11 11 11 10 9 10 10 10 9 9 9 8 10 10 9 9 8 9 10 8 7 7 5 6 6 7 7 7 7 6 7 8 5 3 9 4 7 10 7 8 8 8 7 5 5 4 5 4 9 10 6 5 7 12 8 7 5 6 6 6 6 6 7 8 9 9 10 11 11 12 12 13 13 14 14 14 15
12 13 14 14 14 15 14 12 12 12 11 11 11 10 10 10 9 9 9 8 7 9 7 7 8 9 8 7 7 7 6 7 7 6 7 6 6 7 7 8 8 8 7 7 6 8 10 7 7 7 6 6 5 5 3 5 7 10 8 5 4 8 9 7 7 6 5 5 6 7 7 7 9 9 10 11 12 12 13 13 14 14 14 15 16
13 13 14 14 13 14 14 13 13 12 12 11 11 10 10 10 10 10 10 8 7 8 8 8 9 8 7 9 8 8 7 7 7 6 7 7 8 7 8 9 8 9 6 8 8 7 9 9 6 7 7 6 6 5 5 7 8 8 4 5 4 6 9 10 7 7 7 6 7 7 8 8 9 10 10 11 12 13 13 13 14 15 15 15 16
13 12 14 15 14 15 14 13 13 12 12 12 11 11 11 9 10 10 9 8 7 6 7 10 10 9 9 9 9 9 9 9 9 7 7 8 10 11 7 6 6 7 7 6 5 7 5 8 6 5 8 7 6 6 5 4 10 7 3 5 5 4 13 11 8 9 9 8 8 7 7 9 9 10 11 11 12 13 13 14 14 15 15 16 17
14 14 15 15 14 14 14 14 12 13 13 13 12 11 12 10 10 8 8 8 8 9 9 9 9 10 10 11 11 10 9 8 8 8 9 7 4 4 6 6 6 6 6 6 6 4 5 7 6 4 8 7 6 5 5 4 7 5 4 4 7 9 9 9 11 10 10 10 9 7 8 8 9 10 11 12 13 14 14 14 15 14 15 15 15
16 17 16 16 16 16 15 14 13 13 13 12 13 13 12 10 9 9 8 10 10 10 10 9 9 10 11 12 11 9 8 8 7 4 5 6 7 7 7 7 7 6 5 6 6 0 2 4 6 4 6 5 5 5 6 4 7 7 5 7 4 7 7 8 14 12 11 11 10 8 7 8 9 9 11 12 13 14 14 14 13 13 14 14 14
16 16 17 17 17 17 16 15 16 13 13 12 11 11 11 11 10 11 11 11 11 11 10 11 10 10 10 10 11 11 8 8 8 7 7 8 8 7 6 6 7 6 5 6 6 4 3 3 3 4 4 4 6 7 7 5 7 6 8 5 5 5 5 4 10 14 13 11 9 8 8 9 9 10 11 12 12 12 13 13 13 12 13 14 15
17 17 17 15 16 17 16 17 16 15 15 14 13 11 11 12 10 9 12 12 13 11 11 11 11 9 9 11 11 11 9 9 8 8 8 7 7 7 7 6 6 6 6 7 7 5 7 5 3 2 4 6 6 6 4 3 4 2 5 4 4 6 4 4 5 9 14 12 8 8 9 10 10 10 11 12 13 13 13 13 14 15 14 15 16
17 17 17 17 18 19 18 17 17 15 15 14 12 13 12 14 13 12 13 13 13 12 11 11 11 10 10 10 10 9 7 9 8 7 7 7 6 7 7 7 6 6 6 7 6 7 8 6 5 7 7 6 6 5 6 5 5 5 5 6 5 4 4 4 5 5 12 12 7 9 10 11 11 12 12 13 13 14 14 14 14 15 16 16 16
17 15 17 19 18 18 18 17 17 15 15 14 14 13 15 15 15 14 12 11 11 11 10 10 10 10 10 10 10 9 9 9 8 7 6 6 6 6 7 5 6 5 5 5 5 2 7 5 7 7 7 5 5 6 4 4 5 5 5 4 2 4 4 5 6 5 9 10 11 10 11 12 12 13 14 14 14 14 15 14 15 16 16 16 16
17 17 16 17 18 18 17 19 19 16 15 15 15 13 13 13 14 14 12 11 10 10 10 10 10 10 10 10 10 10 9 9 8 8 7 8 6 6 6 5 5 5 4 4 3 4 4 5 6 5 5 5 5 5 5 5 6 7 6 5 5 5 4 3 4 6 7 12 11 13 12 13 14 14 14 14 15 16 15 15 16 17 17 16 16
18 17 18 17 17 19 19 19 19 18 16 15 16 16 16 15 14 14 11 11 10 10 10 10 10 10 10 11 10 10 10 9 9 8 8 9 7 6 7 6 6 6 4 4 4 4 5 5 5 5 4 5 5 4 5 4 4 4 3 4 5 5 5 6 5 5 5 3 4 6 11 13 15 16 15 15 17 17 16 16 17 18 16 15 16
18 18 17 18 15 18 19 19 19 19 17 15 16 16 17 16 15 13 11 10 11 10 10 10 10 10 10 10 10 10 10 10 9 9 8 9 7 7 7 6 6 7 6 5 6 7 6 6 5 5 5 5 5 5 6 3 1 4 4 4 5 4 4 4 5 5 4 4 5 10 11 11 11 10 10 13 16 16 14 15 18 18 14 15 15
18 19 19 18 14 16 18 18 18 16 15 14 16 16 16 16 13 12 11 10 10 10 10 10 10 10 11 10 10 10 10 10 9 9 9 9 7 7 6 6 6 6 6 6 6 6 6 6 6 6 6 6 5 4 1 4 4 5 5 3 4 4 5 4 5 6 5 5 6 5 5 7 10 13 16 17 19 18 16 15 17 16 14 13 14
14 18 18 17 16 18 19 19 19 17 16 15 15 15 16 15 13 12 12 11 10 10 10 11 10 11 10 10 10 10 10 9 11 9 9 8 8 8 7 7 7 7 6 6 6 6 6 6 6 5 5 5 5 5 5 4 5 3 3 1 3 5 5 6 5 6 6 5 5 6 7 7 8 8 8 8 6 5 10 11 8 6 11 14 14
17 17 17 15 16 17 19 19 18 16 14 14 13 18 16 13 13 11 10 10 11 11 10 11 11 11 11 10 9 11 9 10 10 10 10 9 8 3 7 8 8 7 7 7 7 7 6 6 6 6 6 5 5 5 5 5 3 1 2 3 5 4 4 6 6 4 4 4 6 7 7 7 7 9 8 8 8 8 8 8 7 8 9 12 14
17 17 16 16 14 17 19 20 20 17 14 11 18 19 17 16 14 12 12 11 12 12 11 11 11 11 11 11 8 10 11 10 10 11 9 8 8 8 10 9 6 2 7 8 6 7 7 6 6 5 5 5 5 4 4 4 3 3 3 3 3 4 5 5 6 5 2 4 7 9 8 7 7 9 8 8 9 9 9 9 11 10 10 12 15
16 17 18 16 14 15 16 19 19 15 12 15 22 20 18 18 14 12 11 11 11 11 11 11 10 11 11 11 9 9 9 11 10 9 8 8 8 8 9 9 9 9 9 3 4 6 6 5 5 5 5 5 4 4 4 3 3 4 4 4 4 5 5 5 5 6 5 7 8 9 9 7 7 8 9 9 9 8 9 11 11 8 13 15 15
15 17 18 15 14 17 16 19 17 15 11 18 21 22 19 18 16 14 11 11 11 11 11 12 12 11 11 10 9 9 9 12 11 11 10 7 7 7 7 7 8 8 7 8 8 5 2 5 4 4 5 4 4 4 4 2 1 2 2 3 4 4 4 5 5 6 7 7 8 8 8 7 7 8 9 9 9 9 10 11 11 14 15 14 13
12 15 19 17 14 15 17 18 16 14 12 19 22 22 21 19 18 14 12 12 10 12 12 12 11 11 11 10 10 10 9 11 10 12 11 10 8 6 5 5 5 5 5 5 3 2 3 2 3 4 4 2 3 1 3 2 2 3 3 4 4 4 5 6 7 8 9 8 9 8 9 7 7 9 10 10 10 9 10 12 15 14 11 11 14
15 15 17 16 13 14 16 18 14 15 11 23 22 22 21 20 19 14 11 11 10 11 11 11 11 11 11 11 10 11 11 12 10 13 11 11 10 8 8 7 7 7 5 5 4 3 2 2 2 3 1 4 3 2 4 4 3 3 3 4 4 5 6 7 9 11 10 8 6 6 9 7 6 9 10 10 10 11 10 13 15 10 10 14 17
15 15 11 13 14 15 15 18 14 15 12 24 23 22 22 20 20 10 10 12 12 11 11 11 11 11 11 11 11 11 12 13 11 14 11 11 10 9 9 7 7 6 7 3 3 4 5 2 4 6 6 6 7 7 6 3 2 1 3 4 5 6 7 8 7 5 6 4 6 7 6 7 7 9 11 11 10 11 12 11 12 12 14 16 18
14 14 13 12 13 13 15 18 16 14 13 21 24 23 23 22 16 10 10 9 10 11 11 11 11 11 11 12 11 11 12 12 13 14 12 12 10 10 8 8 8 7 7 5 6 7 8 10 8 8 7 7 7 7 8 8 5 4 3 5 5 5 6 6 6 5 5 6 5 3 4 8 7 9 10 11 10 11 11 11 10 13 16 17 14
14 13 12 13 12 13 16 20 17 14 12 18 24 23 23 23 19 13 11 12 11 11 11 11 10 10 12 14 13 11 12 11 17 15 14 12 10 10 10 10 9 8 8 7 5 4 4 5 6 5 3 2 3 3 4 4 3 1 4 6 5 5 6 6 7 6 6 7 4 4 6 7 9 8 10 10 11 9 11 11 12 12 15 16 18
13 12 12 12 13 12 15 17 15 13 12 17 23 23 23 23 18 11 12 11 12 11 11 11 11 10 10 10 12 11 11 13 20 15 14 12 10 10 9 9 10 10 8 9 8 8 7 7 6 5 5 5 4 5 6 9 7 5 5 7 6 6 7 6 6 6 6 5 5 5 7 8 9 9 10 10 11 11 9 11 12 12 12 13 14
Wind_Direction
184 183 201 183 191 199 192 187 199 204 175 208 205 203 209 217 216 223 220 233 225 205 224 212 216 227 179 172 101 63 70 120 130 182 137 114 106 101 110 111 110 111 112 108 108 111 110 109 106 104 99 95 91 87 85 83 78 74 68 71 69 59 55 53 51 48 42 39 35 32 30 28 23 19 16 21 15 13 10 6 9 11 10 6 9
185 182 185 184 184 192 194 186 202 204 179 204 205 199 206 211 214 217 220 227 223 201 225 218 215 195 194 165 96 92 94 101 125 188 136 123 106 107 97 98 103 108 114 114 112 111 109 108 106 103 99 97 94 89 84 80 77 75 69 68 74 66 56 53 50 44 39 35 30 25 25 25 23 20 13 13 12 7 6 4 2 8 5 359 7
185 183 180 183 177 186 191 185 196 196 188 202 211 198 207 212 216 214 227 222 221 194 214 226 214 181 62 46 52 70 120 138 115 187 131 125 124 118 105 94 97 106 112 115 116 113 111 107 106 102 100 97 95 92 89 85 83 79 76 74 69 66 63 55 49 37 32 24 19 16 14 14 12 12 10 7 2 357 354 358 357 353 352 353 2
182 185 177 178 180 184 192 186 194 185 197 196 193 208 210 216 220 217 241 237 218 197 207 230 47 31 22 82 58 273 236 195 184 171 143 125 130 136 139 119 107 104 109 113 117 114 114 110 108 109 104 102 101 104 103 104 103 94 87 82 68 57 51 46 32 29 19 13 10 7 4 1 3 359 357 356 355 351 344 343 348 347 341 346 354
181 187 179 179 179 184 188 186 192 183 193 192 190 204 220 220 227 243 232 245 220 198 59 57 101 69 28 122 161 149 247 169 144 134 134 139 140 140 132 142 135 126 117 116 116 119 114 116 113 114 114 112 109 107 106 113 120 123 108 95 79 56 41 23 18 1 354 353 348 355 355 352 351 350 345 343 338 340 342 343 341 341 340 339 344
178 188 185 180 175 185 185 186 188 181 181 182 195 201 214 217 210 221 216 226 213 145 62 82 74 76 26 251 171 207 190 175 179 147 135 119 91 147 155 146 143 135 131 124 122 122 126 126 129 119 117 112 115 114 122 127 127 125 125 110 89 55 9 358 360 9 4 356 343 343 352 351 350 346 341 337 333 328 331 335 332 329 332 333 336
181 184 189 179 175 186 186 188 180 177 186 189 203 201 212 213 212 217 207 216 13 48 169 107 105 119 198 240 236 198 154 142 149 175 117 90 194 56 2 18 45 96 133 139 132 132 134 130 124 126 127 132 131 138 131 129 134 131 130 111 74 37 15 0 358 352 353 360 353 351 351 351 349 345 343 339 334 331 329 332 330 325 320 323 332
180 187 191 185 183 188 183 189 175 187 196 189 207 202 213 217 210 220 237 200 100 115 228 118 153 147 216 230 176 156 132 165 190 165 132 163 89 103 101 113 142 136 152 140 145 134 138 141 141 148 152 152 150 153 153 146 135 121 100 89 92 69 0 358 355 350 348 359 350 348 349 348 344 343 339 337 334 332 332 331 328 324 325 323 325
187 191 198 196 198 194 185 181 179 197 196 194 209 212 206 214 220 212 172 220 113 148 174 144 124 198 195 213 147 141 163 156 176 65 71 62 101 129 131 119 99 114 167 146 145 145 149 152 157 156 148 106 120 112 140 142 147 125 108 67 18 359 1 357 344 343 346 356 347 345 347 345 341 338 338 333 331 331 330 330 328 324 322 324 322
195 196 201 202 204 197 182 170 190 196 199 197 212 216 211 203 227 212 199 219 104 168 157 189 200 155 219 169 133 156 152 148 138 116 187 103 143 112 121 114 145 176 182 155 157 149 153 156 157 159 153 165 182 172 92 66 26 136 138 117 350 348 349 349 346 343 347 349 345 342 346 340 335 335 333 330 327 327 327 327 326 325 325 327 326
193 200 201 206 202 199 179 175 193 194 199 206 209 215 212 199 220 214 208 201 119 195 158 174 149 174 167 140 147 132 128 163 159 214 117 127 119 146 137 141 165 171 163 186 154 163 160 169 183 189 172 172 188 146 114 64 22 355 61 347 2 355 345 346 344 344 346 342 341 341 340 336 330 330 329 328 328 328 328 329 327 329 328 325 324
193 202 204 205 204 194 181 179 194 196 197 206 213 206 203 200 216 219 207 189 119 194 164 159 137 147 139 131 144 155 171 178 198 221 149 157 159 176 161 145 170 167 171 195 176 165 175 175 193 192 163 168 175 174 170 176 135 39 0 357 348 342 338 342 339 343 339 338 340 337 335 332 331 330 329 329 331 332 332 330 331 331 331 329 325
196 200 203 204 212 199 188 191 196 199 199 208 214 212 197 193 193 228 210 195 157 155 152 175 136 130 101 149 146 178 176 229 197 218 212 167 169 197 164 159 168 170 188 176 181 175 184 188 207 183 168 157 178 187 194 186 170 173 106 341 339 334 334 339 343 339 337 337 336 334 331 330 332 332 330 332 334 334 331 333 334 333 333 333 332
196 200 202 206 206 201 194 198 199 201 202 208 213 213 201 174 205 240 208 200 176 152 176 162 166 169 165 169 176 183 190 216 221 214 239 197 182 193 161 192 176 183 167 182 188 190 192 193 214 187 185 172 173 179 192 182 175 180 156 175 309 323 333 347 339 341 335 334 331 329 328 334 335 332 332 335 334 331 333 336 335 333 333 334 332
194 200 199 207 208 204 201 197 201 200 201 207 210 209 209 198 203 213 205 200 182 162 176 193 184 168 172 165 177 188 196 226 223 231 198 222 197 187 186 200 191 188 169 199 189 203 193 181 193 186 209 251 178 181 184 181 156 163 173 173 216 316 352 343 339 338 333 329 328 328 332 337 333 333 334 334 332 333 338 336 334 334 335 332 330
193 197 200 202 204 206 202 199 198 204 205 205 203 207 201 207 202 219 216 202 197 181 189 207 205 174 181 199 172 213 206 218 199 211 202 209 205 202 185 210 198 186 173 206 198 201 200 176 182 169 192 214 249 261 248 135 153 166 158 160 139 84 19 357 335 333 329 327 328 330 334 335 334 334 333 331 332 338 338 334 333 335 333 331 330
193 199 200 199 203 208 204 198 200 199 207 208 203 204 203 203 201 214 215 212 200 186 191 206 214 209 219 187 164 212 261 142 180 182 196 207 203 203 186 205 209 188 185 213 206 193 197 186 177 162 198 200 224 234 259 148 163 163 146 147 127 113 58 355 337 332 325 327 328 329 332 334 332 332 330 330 335 340 337 334 334 333 330 329 329
195 198 201 200 200 205 208 206 200 201 207 208 203 200 203 204 201 210 213 216 217 195 195 202 216 219 235 261 26 323 16 139 176 192 186 216 210 195 198 202 214 198 197 210 213 192 193 205 162 185 188 214 216 219 217 221 193 134 140 128 146 129 109 339 332 327 324 324 325 328 330 332 330 330 329 332 338 339 335 334 333 331 329 330 330
198 199 202 202 203 202 202 211 203 201 199 203 205 204 202 206 201 208 211 209 212 211 207 193 204 222 225 240 236 222 244 199 215 157 171 196 231 187 204 199 205 219 204 218 209 202 186 211 174 204 189 210 215 234 211 195 103 98 102 126 113 116 150 191 313 324 319 319 322 325 328 329 328 328 328 334 339 336 334 332 330 330 329 331 332
195 201 200 198 207 202 202 209 213 199 195 200 204 201 205 201 202 206 207 207 203 209 224 201 205 203 211 217 225 232 240 250 281 284 270 218 195 208 196 207 194 215 225 225 215 203 182 207 206 194 207 195 209 210 232 192 163 144 117 103 117 157 220 240 288 310 309 312 318 323 324 327 326 325 328 335 337 334 331 331 329 329 331 332 332
198 202 203 201 205 206 205 207 211 208 194 201 201 199 204 201 197 198 203 205 198 220 232 211 206 217 193 215 221 227 228 232 243 242 253 252 243 186 191 186 215 205 222 238 232 210 184 201 234 218 197 196 208 211 209 217 168 139 134 137 149 158 243 284 307 295 302 307 314 317 321 323 322 324 330 334 335 332 330 329 329 329 332 332 330
205 205 204 203 205 205 206 209 206 209 201 204 197 199 201 202 201 201 202 205 198 209 221 223 216 224 222 206 218 220 233 235 224 234 236 249 267 214 183 191 203 208 200 210 226 221 182 197 219 232 204 187 207 213 219 194 185 141 122 132 143 196 235 288 297 292 298 306 312 316 316 316 319 324 330 333 333 329 329 327 328 330 330 328 327
203 208 206 202 207 207 209 208 207 206 207 205 200 200 200 203 198 199 208 204 197 216 214 224 226 225 219 216 215 215 217 216 224 211 231 233 233 242 227 198 212 203 189 205 207 201 197 198 211 221 220 197 207 206 203 133 82 108 134 149 156 194 217 228 275 282 297 310 310 312 308 311 319 325 328 331 328 328 326 326 326 327 326 323 323
197 207 206 203 207 208 208 211 208 205 204 208 200 201 194 200 194 199 207 205 204 210 212 221 218 225 241 226 220 223 216 223 224 235 226 236 242 250 257 229 220 215 176 180 189 212 206 215 204 213 222 203 210 210 139 143 126 132 158 159 180 188 189 225 230 277 287 296 302 300 303 311 319 324 327 327 326 325 325 322 323 324 320 319 320
199 202 204 203 205 207 205 208 210 203 204 204 203 204 193 196 199 195 198 208 206 210 209 233 225 215 218 217 221 221 225 220 237 251 233 241 246 250 241 243 219 211 166 162 161 214 217 213 206 217 207 206 217 191 166 190 138 159 217 170 183 178 186 200 223 254 271 262 277 293 299 309 318 321 323 323 322 322 319 320 318 314 315 315 313
195 201 198 203 206 204 205 206 208 202 202 204 206 204 197 201 197 185 202 210 201 215 222 222 225 226 225 224 222 221 225 223 226 236 239 233 236 238 248 255 294 309 106 106 192 216 207 216 199 219 200 206 208 178 175 143 132 155 229 197 175 181 177 188 215 251 264 273 275 287 296 309 316 316 317 317 316 314 312 311 310 310 311 311 308
201 201 200 203 203 203 203 204 203 206 201 202 206 208 201 201 206 200 200 200 214 216 222 224 226 220 221 224 228 228 218 229 233 232 236 242 242 238 242 258 225 204 274 194 214 213 211 198 197 211 199 196 190 170 186 198 128 148 182 235 187 174 175 177 203 233 257 266 275 282 294 300 305 306 306 306 305 305 305 306 308 308 308 306 306
196 199 202 203 200 203 201 202 200 203 201 201 203 204 200 204 207 202 206 207 208 212 219 221 228 229 224 223 234 232 224 226 231 228 237 239 238 242 254 253 260 226 206 249 230 214 202 198 188 204 193 186 185 185 104 128 145 164 199 251 179 162 172 175 193 235 245 260 272 277 284 291 291 292 294 295 298 302 303 304 305 306 304 303 302
192 197 199 201 202 203 200 198 200 200 202 202 202 199 194 200 207 207 210 208 213 216 209 212 213 219 222 221 224 229 227 219 221 229 223 228 236 240 237 241 246 262 251 230 226 239 193 198 181 190 197 172 192 157 157 236 146 167 216 230 229 163 166 182 189 222 235 236 258 268 276 282 285 288 291 294 299 301 302 302 302 301 301 301 302
195 195 196 199 200 199 201 199 200 198 202 202 201 198 197 197 204 209 204 207 207 214 218 216 207 194 207 216 217 223 226 213 205 211 227 215 224 239 253 263 247 241 248 256 244 191 214 169 195 195 175 192 177 168 200 193 137 196 232 252 233 168 164 177 181 223 223 225 231 247 258 266 275 283 289 293 294 296 296 296 297 297 299 299 300
195 198 196 194 197 198 199 199 200 200 200 201 200 198 198 198 201 209 200 200 211 216 219 224 227 211 203 213 212 214 227 241 241 193 227 256 265 265 233 239 243 237 251 258 268 175 193 167 201 220 156 191 175 182 202 186 160 173 235 235 243 127 166 175 192 218 227 220 220 231 250 258 270 275 280 284 285 288 291 292 294 295 295 295 296
199 200 197 194 193 197 197 197 199 199 198 194 200 201 196 196 196 203 198 202 207 215 218 214 222 227 224 223 231 237 237 227 234 231 217 210 214 221 224 223 234 239 233 255 253 144 156 158 192 156 141 157 187 184 197 206 144 207 255 218 195 132 237 208 183 208 226 220 211 224 239 259 265 267 273 275 280 282 287 292 293 292 289 288 291
202 198 195 195 195 197 195 196 198 195 192 193 197 200 190 200 200 204 206 202 209 214 217 214 216 217 220 223 222 220 212 196 200 200 201 201 203 217 227 217 224 214 221 229 237 185 123 100 140 161 138 180 205 227 227 183 165 197 217 226 210 236 249 264 176 194 216 215 209 218 239 254 263 265 269 272 276 281 283 287 288 285 286 286 289
203 199 193 196 192 194 197 198 199 192 195 194 195 195 192 201 197 197 211 200 210 216 214 215 206 206 207 211 205 199 189 200 197 197 199 194 196 203 206 223 213 215 205 227 225 208 153 148 161 143 173 216 243 188 244 194 223 257 261 257 211 223 248 286 171 184 204 220 193 222 241 254 262 264 265 270 271 274 277 278 281 284 283 284 285
204 200 195 194 191 193 196 197 194 188 191 194 191 195 196 202 201 201 213 206 209 215 210 209 205 202 205 206 205 189 181 200 195 201 196 189 196 201 205 205 215 212 201 220 225 228 159 152 168 198 187 196 232 208 194 208 226 247 245 236 223 226 240 222 272 153 197 195 183 230 242 250 258 261 264 265 269 270 271 272 274 278 279 279 279
200 200 198 197 195 197 197 198 195 188 189 191 189 191 202 204 203 204 200 189 196 205 209 206 208 202 202 201 202 182 185 192 190 193 186 186 198 194 198 197 207 202 213 199 210 37 120 162 202 210 176 184 214 248 201 187 202 206 236 264 256 257 247 252 222 229 171 177 194 227 239 243 247 254 260 264 266 267 266 267 267 270 272 272 274
199 199 200 199 198 198 197 196 197 190 188 188 187 193 205 205 205 202 194 191 194 202 208 207 209 204 199 201 196 183 185 189 186 189 178 187 190 189 186 191 189 184 177 167 149 147 175 201 180 219 161 183 204 230 223 222 202 213 218 226 240 261 244 242 278 267 176 187 207 224 233 238 244 247 253 260 261 259 260 263 265 263 264 267 271
201 200 203 198 199 198 198 199 200 195 191 188 187 198 205 202 201 200 192 193 193 208 206 207 205 202 199 199 196 186 188 189 184 183 180 179 191 180 188 194 181 149 147 152 170 185 217 209 183 187 162 207 194 211 238 217 277 280 258 233 209 229 248 251 253 254 269 274 263 234 229 236 239 244 251 253 254 255 257 261 263 262 261 266 269
199 200 202 200 197 200 199 201 202 198 195 192 194 195 204 201 198 191 186 189 204 213 208 204 203 199 200 199 195 189 190 189 181 182 174 176 183 180 184 190 154 160 165 183 196 194 204 201 185 190 189 205 214 210 221 216 243 268 265 264 266 248 213 246 262 271 265 251 231 236 252 274 284 276 259 252 257 258 260 260 262 262 263 264 267
199 202 202 200 193 199 202 202 201 197 190 188 196 198 202 195 188 181 179 182 194 196 203 202 200 197 198 199 195 190 191 188 181 179 170 174 173 177 175 162 163 169 184 190 197 191 199 201 193 194 206 187 198 237 144 148 233 236 232 268 294 300 295 286 278 271 254 249 276 294 275 254 246 243 245 251 257 262 261 258 257 260 258 253 256
201 205 203 197 193 200 203 201 200 200 194 191 195 198 196 183 177 175 177 182 188 195 198 199 198 197 196 198 194 190 190 183 176 171 169 170 174 173 166 173 174 182 193 192 191 195 199 196 201 204 197 193 199 198 207 215 225 266 102 180 279 283 280 285 286 289 278 270 285 301 300 308 304 309 310 308 305 252 242 245 284 311 316 313 305
203 206 203 195 195 198 201 198 197 197 195 197 180 175 174 173 171 172 173 179 198 206 197 197 197 197 195 195 192 179 146 128 116 111 114 93 52 52 169 177 178 183 194 195 193 202 200 198 211 201 203 197 213 200 211 217 234 287 269 256 258 272 286 280 280 280 326 327 304 293 303 304 309 309 309 314 312 301 308 305 322 325 308 302 299
203 204 203 195 193 197 201 199 196 194 189 181 152 158 163 164 167 169 172 178 204 204 197 197 195 194 193 192 166 123 130 126 122 121 120 106 93 65 55 59 46 169 199 194 203 204 201 207 206 203 206 214 213 198 210 222 207 232 248 260 286 285 283 306 304 313 259 2 316 308 302 306 309 314 317 315 317 312 312 315 320 308 294 293 300
200 203 202 197 191 194 203 198 193 184 184 139 152 152 159 164 166 167 169 177 191 199 197 197 195 193 193 189 168 163 161 164 150 139 133 119 102 84 81 75 74 57 46 44 214 199 206 211 205 198 213 221 207 195 213 213 214 208 227 244 253 272 279 287 302 298 340 331 312 303 295 293 310 310 317 319 312 314 322 311 290 290 300 302 299
196 203 200 198 193 196 200 197 189 179 171 150 153 158 160 165 162 163 170 176 184 193 196 197 196 193 192 187 175 177 175 156 162 169 167 141 91 90 96 118 95 72 48 43 34 12 220 213 220 205 219 227 209 195 212 224 202 283 300 270 263 267 298 295 297 318 310 308 293 287 298 311 311 321 317 317 319 324 316 307 320 309 299 298 291
197 203 201 196 196 194 200 200 189 176 164 159 159 163 163 164 164 169 171 175 183 193 195 198 196 195 190 187 174 176 170 168 178 174 172 168 165 159 173 194 187 126 106 83 11 17 13 349 272 236 194 233 229 203 136 152 197 242 253 268 304 303 298 304 307 286 281 278 272 293 300 310 328 319 316 321 325 319 313 317 307 294 293 291 294
196 200 196 192 194 196 199 200 187 179 159 162 163 166 165 165 169 176 176 175 186 196 197 197 197 193 188 187 179 178 173 175 182 176 171 169 168 171 180 183 196 193 193 196 187 188 196 232 293 277 221 174 220 162 157 167 213 247 286 308 315 303 291 280 272 257 259 251 267 305 298 313 325 316 318 323 323 317 318 314 302 307 316 315 306
197 198 187 192 198 197 196 197 185 179 153 165 165 166 166 167 169 175 185 196 196 196 194 194 194 193 188 187 182 181 176 180 171 169 172 165 167 170 173 175 188 189 197 152 136 85 49 23 37 41 45 39 49 58 39 29 159 191 242 248 250 252 258 265 274 304 299 316 309 288 301 314 323 321 321 320 320 320 317 314 321 333 325 307 300
192 188 184 192 198 191 193 202 189 176 155 171 165 166 167 166 165 176 180 184 183 193 189 191 195 192 190 187 186 185 174 182 155 167 166 159 168 170 163 178 188 190 191 137 92 107 105 96 94 84 85 83 72 76 72 55 50 20 316 296 271 270 282 292 298 300 310 319 318 26 330 308 329 329 318 317 320 313 317 321 325 327 315 303 300
182 181 184 195 197 192 195 203 196 176 157 169 167 167 166 168 169 171 182 191 183 184 187 189 192 191 192 185 189 189 180 172 151 163 159 165 170 166 174 179 184 193 189 163 164 149 107 123 128 135 134 77 78 113 114 115 117 250 244 256 281 304 292 287 290 306 315 297 62 0 329 318 330 327 323 322 315 320 323 322 325 323 323 324 329
179 181 187 195 197 191 200 206 194 174 150 166 169 166 168 170 171 170 174 178 181 182 183 185 190 192 187 176 192 197 188 145 155 157 164 170 170 168 181 184 186 191 189 170 174 179 187 206 216 205 206 179 202 226 198 184 174 192 234 255 272 270 276 284 295 297 295 302 79 12 330 329 329 330 329 326 320 319 320 325 323 325 327 337 325